OBJECT G, 59779

Orbit data source: Space-Track

You're viewing an Uncataloged Satellite

Recently launched and/or uncataloged satellites may have evolving metadata. Metadata may include but not limited to: Owner, Maufacturer, Bus, Motor, and Mission.

OBJECT G, 59779 is a satellite owned by Byuro 1440 (CIS) in SSO that was launched on Thu, 16 May 2024 UTC via a SOYUZ-2-1B launch vehicle from the Plesetsk Missile And Space Complex (PKMTR). Unknown objects in Earth's orbit typically refer to objects detected orbiting the Earth but have not yet been identified or cataloged. These objects could be anything from previously untracked satellites, spent rocket stages, debris from satellite collisions, or even natural meteoroids temporarily captured by Earth's gravity.

Loading next visibility...
OBJECT G details
Identifier
59779, 2024-092G
Orbit
SSO
Last TLE update12 hours ago
Origin
Flag of CISByuro 1440 (CIS)
ManufacturerByuro 1440
MissionOperational spacecraft
Bus & MotorRASSVET-2, Unknown motor
Mass~200 kg wet, ~200 kg dry
Launch date (UTC)
2024-05-16 (7 months ago)
Launch vehicle
SOYUZ-2-1B
Launch site
Plesetsk Missile And Space Complex (PKMTR)
Object typeUnknown
Shape & HBRUnknown
Radar Cross SectionLarge (>1 m²)

Expand to show TLE details & history

TLE from 12 hours ago
0 OBJECT G
1 59779U 24092G   24356.12189466  .00000514  00000-0  21037-3 0  9997
2 59779  98.6231 106.4844 0012333  12.5509 347.5979 14.31410105 31197
Epoch: 2024-12-21T02:55Z
Definitive object data (Epoch: 2024-12-21T02:55:31.698Z)
Latitude-0.00002°
Longitude-27.57526°
Altitude781.322 km
Speed7.468 km/s
True Right ascension07h 05m 56s
True Declination0° 00' 00"
Sunlit
Object was in full shadow at TLE epoch
Visualization TLE readout
Latitude35.85516°
Longitude-33.3409°
Altitude783.842 km
Speed7.469 km/s
Apparent Right ascension04h 31m 57s
Apparent Declination0° 41' 08"
Sunlit
Object is in full shadow
Visualization observer readout
Local Sidereal Time13:52:24
Azimuth308.026° NW
Elevation-35.505°
Doppler factor1
Orbital elements
Apogee altitude792.994 km
Perigee altitude775.327 km
Semi-major axis7,162.297 km
Eccentricity0.0012333
Inclination98.6231°
RAAN106.4844°
Arg. of periapsis12.5509°
True anomaly347.5675°
Mean anomaly347.5979°
Eccentric anomaly347.58271°
Mean motion3.58067 °/min
BSTAR0.00021037
Orbital period100.54 mins
Loading maneuver chart data...
Loading historical data...
Loading historical data...
Loading historical data...
Loading historical data...
Loading historical data...
Loading historical data...
Loading historical data...

OBJECT G Visibility forecast

Observer location: undefined°, undefined

Span
Click to sort rows by Start time (UTC) header in descending order
Start Az.
Max El. time (UTC)
Max El. Az.
Max El.
End time (UTC)
End Az.
10 mins2024-12-21 20:16:12.591Z19.053° NNE2024-12-21 20:21:12.591Z101.873° ESE42.788°2024-12-21 20:26:12.591Z184.96° SSW
4 mins2024-12-21 21:58:12.591Z321.919° NNW2024-12-21 22:00:12.591Z296.2° NW14.974°2024-12-21 22:02:12.591Z271.302° WNW
8 mins2024-12-22 07:34:12.591Z166.438° S2024-12-22 07:38:12.591Z331.953° NNW44.634°2024-12-22 07:42:12.591Z345.838° N
|